Voltar ao catálogo

STARLINK-4109

AtivoComunicaçõesVLEO
NORAD 53268·PAYLOAD·🇺🇸 United States

Lançado Jul 24, 2022 de Cape Canaveral Space Force Station

Loading…

Próximas Passagens (próximas 24 horas)

TLE

AtualizadoSource: CelesTrak SupGP

Época: Sep 14, 2026, 20:49 UTC

1 53268C 22086AC  26257.86784722  .00050830  00000+0  15017-2 0  2576
2 53268  53.1597  51.8576 0001236  63.1732 357.8777 15.34367635    10

Acompanhe STARLINK-4109 em tempo real com AllMySat

Download on the App Store